Location: Devore Heights
(34.2372°N, 117.4156°W)
Time: 03:04:40
(UTC+00:00)

SR - Pass Details

Date: 13 September 2024
Orbit: 578 x 855 km, 66.7° (Epoch: 02 October)

Event Time Altitude Azimuth Distance (km) Brightness Sun altitude
Rises 21:39:35 0° 230° (SW) 2,836 ? 49.2°
Reaches altitude 10° 21:42:05 10° 242° (WSW) 1,912 ? 48.9°
Maximum altitude 21:45:46 28° 302° (WNW) 1,098 ? 48.3°
Drops below altitude 10° 21:49:26 10° 3° (N) 1,894 ? 47.7°
Sets 21:51:55 0° 15° (NNE) 2,803 ? 47.3°
